Weather History for KHOU - May, 2013

Change the Weather History Date:

Monday, May 13, 2013

  Actual Average Record
Temperature  
Mean Temperature 68 °F 76 °F  
Max Temperature 81 °F 86 °F 94 °F (1907)
Min Temperature 55 °F 67 °F 50 °F (1895)
Cooling Degree Days 3 11  
Month to date cooling degree days 63 128  
Year to date cooling degree days 288 409  
Growing Degree Days 20 (Base 50)    
Moisture  
Dew Point 55 °F    
Average Humidity 58    
Maximum Humidity 86    
Minimum Humidity 30    
Precipitation  
Precipitation 0.00 in 0.16 in 3.44 in (2014)
Month to date precipitation 0.84 2.13  
Year to date precipitation 9.14 15.43  
Sea Level Pressure  
Sea Level Pressure 30.24 in    
Wind  
Wind Speed 6 mph (East)    
Max Wind Speed 14 mph    
Max Gust Speed 17 mph    
Visibility 10 miles    
Events      
T = Trace of Precipitation, MM = Missing Value Source: NWS Daily Summary

Daily Weather History Graph

Daily Weather History Graph

Search for Another Location

Airport or City:

Trip Planner

Search our weather history database for the weather conditions in past years. The results will help you decide how hot, cold, wet, or windy it might be!

Date:

Astronomy

May. 13, 2013 Rise Set
Actual Time 6:29 AM CDT 8:05 PM CDT
Civil Twilight 6:03 AM CDT 8:31 PM CDT
Nautical Twilight 5:32 AM CDT 9:02 PM CDT
Astronomical Twilight 4:59 AM CDT 9:35 PM CDT
Moon 9:17 AM CDT (5/13) 11:15 PM CDT (5/13)
Length of Visible Light 14h 28m
Length of Day
13h 36m
Waxing Crescent, 12% of the Moon is Illuminated
May 13
Waxing Crescent
May 17
First Quarter
May 24
Full
May 31
Last Quarter
Jun 8
New

Hourly Weather History & Observations

Time (CDT) Temp. Dew Point Humidity Pressure Visibility Wind Dir Wind Speed Gust Speed Precip Events Conditions
12:53 AM 64.9 °F 55.0 °F 70% 30.19 in 10.0 mi NE 4.6 mph - N/A   Partly Cloudy
1:53 AM 64.9 °F 54.0 °F 68% 30.20 in 10.0 mi NE 6.9 mph - N/A   Scattered Clouds
2:53 AM 63.0 °F 52.0 °F 67% 30.20 in 10.0 mi NNE 5.8 mph - N/A   Scattered Clouds
3:53 AM 62.1 °F 53.1 °F 72% 30.19 in 10.0 mi NE 4.6 mph - N/A   Scattered Clouds
4:53 AM 62.1 °F 53.1 °F 72% 30.19 in 10.0 mi Calm Calm - N/A   Partly Cloudy
5:53 AM 61.0 °F 53.1 °F 75% 30.21 in 10.0 mi Calm Calm - N/A   Scattered Clouds
6:53 AM 61.0 °F 54.0 °F 78% 30.23 in 10.0 mi ENE 4.6 mph - N/A   Scattered Clouds
7:53 AM 66.0 °F 57.0 °F 73% 30.25 in 10.0 mi ENE 6.9 mph - N/A   Partly Cloudy
8:53 AM 69.1 °F 54.0 °F 58% 30.28 in 10.0 mi ESE 10.4 mph - N/A   Partly Cloudy
9:53 AM 73.0 °F 54.0 °F 51% 30.30 in 10.0 mi East 9.2 mph - N/A   Clear
10:53 AM 73.9 °F 57.0 °F 55% 30.31 in 10.0 mi East 10.4 mph - N/A   Clear
11:53 AM 75.9 °F 57.9 °F 54% 30.30 in 10.0 mi ESE 4.6 mph - N/A   Partly Cloudy
12:53 PM 77.0 °F 54.0 °F 45% 30.28 in 10.0 mi ESE 5.8 mph - N/A   Partly Cloudy
1:53 PM 78.1 °F 55.9 °F 46% 30.27 in 10.0 mi SE 9.2 mph - N/A   Scattered Clouds
3:53 PM 79.0 °F 54.0 °F 42% 30.23 in 10.0 mi East 9.2 mph - N/A   Scattered Clouds
4:53 PM 78.1 °F 54.0 °F 43% 30.22 in 10.0 mi East 8.1 mph - N/A   Partly Cloudy
5:53 PM 77.0 °F 52.0 °F 42% 30.21 in 10.0 mi East 10.4 mph - N/A   Clear
6:53 PM 75.2 °F 51.8 °F 44% 30.20 in 10.0 mi ESE 8.1 mph - N/A   Partly Cloudy
7:53 PM 72.0 °F 52.0 °F 49% 30.22 in 10.0 mi SE 4.6 mph - N/A   Partly Cloudy
8:53 PM 69.1 °F 55.9 °F 63% 30.23 in 10.0 mi ESE 5.8 mph - N/A   Scattered Clouds
9:53 PM 66.9 °F 57.0 °F 70% 30.25 in 10.0 mi SE 3.5 mph - N/A   Mostly Cloudy
10:53 PM 66.0 °F 57.9 °F 75% 30.25 in 10.0 mi SE 3.5 mph - N/A   Mostly Cloudy
11:53 PM 64.0 °F 57.9 °F 80% 30.25 in 10.0 mi South 3.5 mph - N/A   Scattered Clouds